Regional Weather Roundup
Issued by NWS Midland/Odessa, TX

Skip options and go directly to product.
Home | Oldest Version | Previous Version | Current Version | All | Text Only | Save Text | Print | Product List | Glossary Off

Skip product version selection by date and time.   

705
ASUS44 KMAF 172310
RWRMAF
MIDLAND AREA WEATHER ROUNDUP
NATIONAL WEATHER SERVICE MIDLAND TX
500 PM CST WED DEC 17 2014

...IN SOUTHWEST TEXAS AND SOUTHEAST NEW MEXICO...

CITY           SKY/WX    TMP DP  RH WIND       PRES   REMARKS
ALPINE         CLEAR     62  25  24 W13G18    30.08R
ANDREWS        FAIR      63  29  28 W21G28    29.95S
ARTESIA        PTCLDY    61  28  29 SW20      29.96R
BIG SPRING     CLEAR     61  45  54 S9        29.98S
CARLSBAD       CLEAR     62  28  27 SW21G32   29.95R
DRYDEN           N/A     54  47  77 E9        30.00R
FORT STOCKTON  CLEAR     65  34  31 VRB3      29.98S
GUAD PASS      NOT AVBL
HOBBS          CLEAR     59  28  31 SW23G32   29.96R
MARFA          CLEAR     59  25  27 W16       30.06R
MIDLAND AIRPK  CLEAR     67  31  26 W18G24    29.96S
MIDLAND INTL   CLEAR     66  32  28 W23       29.95S
ODESSA         CLEAR     65  29  25 W16G26    29.96S
PECOS          CLEAR     67  29  24 W18       29.98R
PRESIDIO       FAIR      70  33  25 N3        29.98R
SEMINOLE       CLEAR     62  30  30 W16G23    29.96R
SNYDER         MOCLDY    53  46  77 SE7       29.98S
WINK           CLEAR     66  25  21 W25G32    29.96R
$$
...OTHER STATIONS IN TEXAS...

CITY           SKY/WX    TMP DP  RH WIND       PRES   REMARKS
ABILENE        CLOUDY    51  40  65 S6        30.03R
AMARILLO       CLOUDY    37  35  92 SE16      29.96R WCI  28
AUSTIN         CLOUDY    52  50  93 NE5       30.06R
BROWNSVILLE    CLOUDY    73  67  81 SE15G23   29.99R
CORPUS CHRISTI MOCLDY    72  64  76 SE14      30.00R
DALLAS FTW     LGT RAIN  43  40  89 NE6       30.12S FOG     WCI  39
DEL RIO        CLOUDY    54  48  80 E8        30.02R
EL PASO        MOSUNNY   59  30  33 W20G29    30.01R
HOUSTON INT    CLOUDY    62  53  72 E9        30.10S
LUBBOCK        MOCLDY    51  39  63 E14       29.94R
SAN ANGELO     CLOUDY    58  49  72 S9        30.00R
SAN ANTONIO    LGT RAIN  54  50  86 NE6       30.03S FOG
WACO           CLOUDY    48  43  82 SE3       30.09R
WICHITA FALLS  NOT AVBL
$$
...OTHER LOCATIONS IN NEW MEXICO...

CITY           SKY/WX    TMP DP  RH WIND       PRES   REMARKS
ALAMAGORDO     MOCLDY    55  32  41 SW10G21   30.02S
ALBUQUERQUE    LGT RAIN  42  36  79 SW8       30.00R WCI  37
CANNON AFB     CLEAR     55  30  38 W16       29.91S
CLOVIS         PTCLDY    54  32  43 SW13      29.91S
HOLLOMAN AFB   PTCLDY    56  32  40 SW15G22   30.00R
ROSWELL        CLEAR     61  29  29 W14       29.93R
RUIDOSO        MOCLDY    39  32  75 SW30      29.99S WCI  27
SANTA FE       CLOUDY    34  32  92 SW3       29.97R FOG
TRUTH OR CONSE MOSUNNY   53  28  38 SW13      29.97R
TUCUMCARI      PTCLDY    55  30  38 SW15      29.88R
$$

USA.gov is the U.S. government's official web portal to all federal, state and local government web resources and services.